This is the latest recevied weather packets stored in our database for station/object S51UL-6. If no packets are shown the sender has not sent any weather packets the latest 10 day(s).
| Time | Temp. | Humidity | Pressure | Rain* | Wind** | Luminosity | Snow |
|---|---|---|---|---|---|---|---|
| 1788200508 | 21.67° C | 71% | 1016.5 hPa | 0 mm | - | - | - |
| 1788200208 | 21.67° C | 70% | 1016.2 hPa | 0 mm | - | - | - |
| 1788199908 | 21.67° C | 69% | 1016.1 hPa | 0 mm | - | - | - |
| 1788199608 | 22.22° C | 68% | 1015.9 hPa | 0 mm | - | - | - |
| 1788199308 | 22.22° C | 67% | 1015.9 hPa | 0 mm | - | - | - |
| 1788199008 | 22.78° C | 66% | 1016 hPa | 0 mm | - | - | - |
| 1788198708 | 23.33° C | 63% | 1015.9 hPa | 0 mm | - | - | - |
| 1788198408 | 23.33° C | 62% | 1015.9 hPa | 0 mm | - | - | - |
| 1788198108 | 23.89° C | 60% | 1015.8 hPa | 0 mm | - | - | - |
| 1788197809 | 25° C | 57% | 1015.7 hPa | 0 mm | - | - | - |
| 1788197508 | 25.56° C | 55% | 1015.2 hPa | 0 mm | - | - | - |
| 1788197208 | 26.11° C | 53% | 1015.2 hPa | 0 mm | - | - | - |
| 1788196908 | 26.67° C | 50% | 1015.3 hPa | 0 mm | - | - | - |
| 1788196608 | 27.22° C | 50% | 1015.2 hPa | 0 mm | - | - | - |
| 1788195709 | 27.78° C | 48% | 1014.6 hPa | 0 mm | - | - | - |
| 1788195409 | 27.78° C | 48% | 1014.4 hPa | 0 mm | - | - | - |
| 1788195109 | 28.33° C | 47% | 1014.4 hPa | 0 mm | - | - | - |
| 1788194809 | 28.33° C | 47% | 1014.6 hPa | 0 mm | - | - | - |
| 1788194510 | 28.33° C | 47% | 1014.7 hPa | 0 mm | - | - | - |
| 1788194209 | 28.89° C | 46% | 1014.7 hPa | 0 mm | - | - | - |
| 1788193909 | 29.44° C | 45% | 1014.7 hPa | 0 mm | - | - | - |
| 1788193609 | 29.44° C | 44% | 1014.9 hPa | 0 mm | - | - | - |
| 1788193309 | 30° C | 43% | 1014.8 hPa | 0 mm | - | - | - |
| 1788193009 | 30.56° C | 43% | 1014.8 hPa | 0 mm | - | - | - |
| 1788192709 | 30.56° C | 42% | 1014.9 hPa | 0 mm | - | - | - |
* Rain latest hour (hover to see other rain measurements)
** Current wind speed in m/s (hover to see current wind gust speed)